SR8WXE Weather Reports


time (UTC)temp
F
wind
direction
speed
knots
gust
knots
rain 1hr
in
rain 24hr
in
rain mn
in
humidity
%
barometer
mb
20260508033912 53 257 1.7 3.5 0.00 0.00 0.00 95 1015.4
20260508033412 53 300 0.0 0.0 0.00 0.00 0.00 95 1015.4
20260508032912 53 300 0.0 0.0 0.00 0.00 0.00 95 1015.3
20260508032411 53 300 0.0 0.0 0.00 0.00 0.00 95 1015.2
20260508031911 53 300 0.0 0.0 0.00 0.00 0.00 95 1015.1
20260508031411 53 300 0.0 0.0 0.00 0.00 0.00 95 1015.1
20260508030911 53 300 0.0 0.0 0.00 0.00 0.00 95 1015.1
20260508030410 53 300 0.0 0.0 0.00 0.00 0.00 95 1015.1
20260508025910 53 300 0.0 0.0 0.00 0.00 0.00 95 1015.0
20260508025410 53 300 0.0 1.7 0.00 0.00 0.00 95 1014.9
20260508024909 53 2 0.0 2.6 0.00 0.00 0.00 95 1014.9
20260508024409 53 4 0.0 4.3 0.00 0.00 0.00 95 1014.9
20260508023909 53 265 0.9 3.5 0.00 0.00 0.00 95 1014.9
20260508023409 53 322 1.7 4.3 0.00 0.00 0.00 95 1015.0
20260508022908 53 223 1.7 3.5 0.00 0.00 0.00 94 1015.0
20260508022408 53 255 0.9 2.6 0.00 0.00 0.00 94 1014.9
20260508021908 54 222 0.0 0.0 0.00 0.00 0.00 94 1014.6
20260508021407 53 222 0.0 0.0 0.00 0.00 0.00 94 1014.5
20260508020907 53 222 0.0 0.0 0.00 0.00 0.00 94 1014.6
20260508020407 53 222 0.0 0.0 0.00 0.00 0.00 94 1014.7
20260508015907 53 222 0.0 0.0 0.00 0.00 0.00 93 1014.7
20260508015406 53 222 0.0 0.0 0.00 0.00 0.00 93 1014.7
20260508014906 53 222 0.0 0.0 0.00 0.00 0.00 93 1014.8
20260508014406 53 222 0.0 0.0 0.00 0.00 0.00 93 1014.8
20260508013905 53 222 0.0 0.0 0.00 0.00 0.00 93 1014.8
20260508013405 54 222 0.0 0.0 0.00 0.00 0.00 93 1014.7
20260508012905 54 222 0.0 0.0 0.00 0.00 0.00 93 1014.8
20260508012405 54 222 0.0 0.0 0.00 0.00 0.00 93 1014.8
20260508011904 54 222 0.0 0.0 0.00 0.00 0.00 93 1014.8
20260508011404 54 222 0.0 0.0 0.00 0.00 0.00 93 1014.9
20260508010904 54 222 0.0 0.0 0.00 0.00 0.00 93 1014.9
20260508010403 54 222 0.0 0.0 0.00 0.00 0.00 93 1014.9
20260508005903 54 205 0.0 0.0 0.00 0.00 0.00 93 1014.9
20260508005403 54 220 0.0 0.9 0.00 0.00 0.00 93 1014.9
20260508004903 54 212 0.0 0.0 0.00 0.00 0.00 93 1014.9
20260508004402 54 212 0.0 0.0 0.00 0.00 0.00 93 1014.8
20260508003902 54 212 0.0 1.7 0.00 0.00 0.00 93 1014.9
20260508003402 54 254 0.9 0.9 0.00 0.00 0.00 93 1014.9
20260508002902 54 230 0.0 1.7 0.00 0.00 0.00 93 1015.0
20260508002401 54 229 0.0 0.0 0.00 0.00 0.00 93 1015.0
20260508001901 54 229 0.0 0.0 0.00 0.00 0.00 93 1015.0
20260508001401 54 247 0.0 1.7 0.00 0.00 0.00 93 1015.1
20260508000900 54 196 0.0 2.6 0.00 0.00 0.00 94 1015.0
20260508000400 54 237 0.0 2.6 0.00 0.00 0.00 93 1015.0
20260507235900 54 320 0.0 0.0 0.00 0.00 0.00 93 1014.9
20260507235400 54 320 0.0 0.0 0.00 0.00 0.00 93 1014.9
20260507234859 54 320 0.0 0.0 0.00 0.00 0.00 93 1014.9
20260507234359 54 320 0.0 0.9 0.00 0.00 0.00 93 1014.8
20260507233859 54 320 0.9 3.5 0.00 0.00 0.00 93 1014.8
20260507233358 54 253 0.0 0.9 0.00 0.00 0.00 93 1014.9
20260507232858 54 253 0.0 1.7 0.00 0.00 0.00 93 1014.9
20260507232358 54 251 0.0 0.0 0.00 0.00 0.00 93 1014.9
20260507231858 54 251 0.0 3.5 0.00 0.00 0.00 93 1014.9
20260507231357 54 309 0.0 4.3 0.00 0.00 0.00 93 1014.9
20260507230857 54 315 3.5 4.3 0.00 0.00 0.00 93 1014.9
20260507230357 54 240 1.7 5.2 0.00 0.00 0.00 93 1014.9
20260507225856 55 19 0.9 3.5 0.00 0.00 0.00 93 1014.8
20260507225356 55 312 0.0 4.3 0.00 0.00 0.00 93 1014.9
20260507224856 55 203 0.0 2.6 0.00 0.00 0.00 93 1014.9
20260507224356 55 261 2.6 4.3 0.00 0.00 0.00 93 1014.9
20260507223855 55 324 0.0 0.9 0.00 0.00 0.00 93 1014.8
20260507223355 55 254 0.0 4.3 0.00 0.00 0.00 93 1014.8
20260507222855 55 243 0.0 2.6 0.00 0.00 0.00 93 1014.8
20260507222354 56 278 0.9 1.7 0.00 0.00 0.00 93 1014.8
20260507221854 56 277 0.0 2.6 0.00 0.00 0.00 93 1014.9
20260507221354 56 316 0.0 2.6 0.00 0.00 0.00 93 1014.9
20260507220854 56 285 0.0 1.7 0.00 0.00 0.00 93 1014.9
20260507220353 56 9 0.0 3.5 0.00 0.00 0.00 93 1014.8
20260507215853 56 254 0.0 4.3 0.00 0.00 0.00 93 1014.8
20260507215353 56 258 0.0 0.0 0.00 0.00 0.00 93 1014.8
20260507214852 56 258 0.0 3.5 0.00 0.00 0.00 93 1014.8
20260507214352 56 4 3.5 3.5 0.00 0.00 0.00 93 1014.8
20260507213852 56 264 0.0 0.9 0.00 0.00 0.00 93 1014.8
20260507213352 56 264 0.9 1.7 0.00 0.00 0.00 93 1014.7
20260507212851 56 244 0.0 0.0 0.00 0.00 0.00 93 1014.7
20260507212351 56 244 0.0 2.6 0.00 0.00 0.00 93 1014.7
20260507211851 56 239 0.9 1.7 0.00 0.00 0.00 92 1014.7
20260507211350 56 202 0.0 0.9 0.00 0.00 0.00 93 1014.6
20260507210850 56 201 0.0 0.0 0.00 0.00 0.00 93 1014.5
20260507210350 56 201 0.0 0.9 0.00 0.00 0.00 93 1014.5
20260507205850 56 250 0.0 0.0 0.00 0.00 0.00 93 1014.5
20260507205349 56 250 0.0 2.6 0.00 0.00 0.00 93 1014.5
20260507204849 57 237 1.7 2.6 0.00 0.00 0.00 94 1014.4
20260507204349 57 286 0.0 3.5 0.00 0.00 0.00 94 1014.4
20260507203849 57 261 0.0 2.6 0.00 0.00 0.00 94 1014.4
20260507203348 57 253 0.0 2.6 0.00 0.00 0.00 94 1014.3
20260507202848 57 271 0.9 3.5 0.00 0.00 0.00 94 1014.3
20260507202348 57 277 0.0 3.5 0.00 0.00 0.00 94 1014.2
20260507201847 57 184 0.9 5.2 0.00 0.00 0.00 94 1014.2
20260507201347 57 202 3.5 5.2 0.00 0.00 0.00 94 1014.3
20260507200847 57 219 1.7 5.2 0.00 0.00 0.00 94 1014.4
20260507200347 57 205 1.7 3.5 0.00 0.00 0.00 94 1014.3
20260507195846 57 236 1.7 4.3 0.00 0.00 0.00 94 1014.2
20260507195346 57 254 4.3 7.0 0.00 0.00 0.00 93 1014.2
20260507194846 57 178 1.7 5.2 0.00 0.00 0.00 93 1014.1
20260507194345 57 248 4.3 5.2 0.00 0.00 0.00 92 1014.1
20260507193845 57 270 1.7 2.6 0.00 0.00 0.00 92 1014.1
20260507193345 57 232 0.0 0.0 0.00 0.00 0.00 91 1014.0
20260507192844 57 232 0.0 0.0 0.00 0.00 0.00 91 1013.9
20260507192344 57 232 0.0 0.0 0.00 0.00 0.00 91 1013.8
20260507191844 57 232 0.0 0.0 0.00 0.00 0.00 91 1013.7
20260507191344 57 232 0.0 0.0 0.00 0.00 0.00 90 1013.5
20260507190843 57 232 0.0 0.0 0.00 0.00 0.00 90 1013.3
20260507190343 57 232 0.0 0.0 0.00 0.00 0.00 90 1013.2
20260507185843 57 232 0.0 0.0 0.00 0.00 0.00 90 1013.1
20260507185343 57 232 0.0 0.0 0.00 0.00 0.00 90 1013.1
20260507184842 57 232 0.0 0.0 0.00 0.00 0.00 90 1013.2
20260507184342 57 232 0.0 0.0 0.00 0.00 0.00 90 1013.2
20260507183842 57 232 0.0 0.0 0.00 0.00 0.00 90 1013.0
20260507183341 57 232 0.0 0.0 0.00 0.00 0.00 90 1013.0
20260507182841 57 232 0.0 0.0 0.00 0.00 0.00 90 1012.9
20260507182341 57 232 0.0 0.0 0.00 0.00 0.00 90 1013.0
20260507181841 57 232 0.0 0.0 0.00 0.00 0.00 90 1012.8
20260507181340 57 232 0.0 0.0 0.00 0.00 0.00 90 1012.6
20260507180840 57 232 0.0 0.0 0.00 0.00 0.00 90 1012.5
20260507180340 57 232 0.0 0.0 0.00 0.00 0.00 90 1012.6
20260507175839 58 232 0.0 1.7 0.00 0.00 0.00 90 1012.7
20260507175339 57 189 0.0 2.6 0.00 0.00 0.00 90 1012.9
20260507174839 58 232 0.9 1.7 0.00 0.00 0.00 90 1012.8
20260507174339 58 225 0.0 0.0 0.00 0.00 0.00 90 1012.7
20260507173838 58 233 0.0 1.7 0.00 0.00 0.00 90 1012.7
20260507173338 58 250 0.9 2.6 0.00 0.00 0.00 90 1012.9
20260507172838 58 226 0.9 1.7 0.00 0.00 0.00 90 1012.9
20260507172337 58 219 0.9 4.3 0.00 0.00 0.00 89 1012.9
20260507171837 57 246 0.9 4.3 0.00 0.00 0.00 89 1012.9
20260507171337 57 246 3.5 5.2 0.00 0.00 0.00 89 1012.9
20260507170837 57 240 4.3 6.1 0.00 0.00 0.00 89 1012.9
20260507170336 57 236 1.7 6.1 0.00 0.00 0.00 89 1012.9
20260507165836 57 239 2.6 8.7 0.00 0.00 0.00 88 1012.9
20260507165336 58 216 1.7 1.7 0.00 0.00 0.00 87 1012.7
20260507164835 58 227 0.0 0.0 0.00 0.00 0.00 86 1012.4
20260507164335 58 227 0.0 0.0 0.00 0.00 0.00 86 1012.4
20260507163835 58 227 0.0 0.0 0.00 0.00 0.00 86 1012.5
20260507163335 58 227 0.0 0.0 0.00 0.00 0.00 86 1012.5
20260507162834 58 227 0.0 0.0 0.00 0.00 0.00 85 1012.4
20260507162334 58 227 0.0 0.0 0.00 0.00 0.00 85 1012.3
20260507161834 58 227 0.0 2.6 0.00 0.00 0.00 86 1012.3
20260507161334 58 240 1.7 2.6 0.00 0.00 0.00 85 1012.3
20260507160833 58 255 0.9 3.5 0.00 0.00 0.00 84 1012.1
20260507160333 58 268 0.0 4.3 0.00 0.00 0.00 83 1012.0
20260507155833 59 352 3.5 3.5 0.00 0.00 0.00 81 1012.0
20260507155332 59 264 0.0 5.2 0.00 0.00 0.00 80 1012.1
20260507154832 60 4 0.0 2.6 0.00 0.00 0.00 77 1012.0
20260507154333 60 260 0.9 6.1 0.00 0.00 0.00 74 1011.7
20260507153831 61 236 0.9 6.1 0.00 0.00 0.00 70 1011.7
20260507153527 62 127 0.9 2.6 0.00 0.00 0.00 68 1011.6
20260507153331 62 127 0.9 2.6 0.00 0.00 0.00 68 1011.6
20260507153114 62 316 0.0 5.2 0.00 0.00 0.00
20260507152831 62 316 0.0 5.2 0.00 0.00 0.00 66 1011.5
20260507152331 63 271 1.7 5.2 0.00 0.00 0.00 64 1011.7
20260507152228 63 286 1.7 6.1 0.00 0.00 0.00 61 1011.6
20260507151830 63 286 1.7 6.1 0.00 0.00 0.00 61 1011.6
20260507151330 64 260 0.0 4.3 0.00 0.00 0.00 60 1011.5
20260507150830 64 270 2.6 5.2 0.00 0.00 0.00 59 1011.6
20260507150330 64 337 0.0 4.3 0.00 0.00 0.00 59 1011.4
20260507145829 64 264 0.0 4.3 0.00 0.00 0.00 58 1011.4
20260507145329 64 239 0.9 6.1 0.00 0.00 0.00 57 1011.4
20260507144829 64 302 1.7 4.3 0.00 0.00 0.00 56 1011.4
20260507144328 65 336 1.7 6.1 0.00 0.00 0.00 55 1011.3
20260507143828 65 1 0.9 7.8 0.00 0.00 0.00 54 1011.3
20260507143328 66 274 0.0 7.8 0.00 0.00 0.00 53 1011.3
20260507142828 66 306 2.6 7.8 0.00 0.00 0.00 54 1011.3
20260507142327 68 246 3.5 7.8 0.00 0.00 0.00 52 1011.1
20260507141827 69 239 7.0 7.8 0.00 0.00 0.00 47 1011.0
20260507141327 69 215 2.6 10.4 0.00 0.00 0.00 46 1010.8
20260507140826 69 181 0.0 7.0 0.00 0.00 0.00 47 1010.8
20260507140326 69 250 7.0 12.2 0.00 0.00 0.00 46 1010.7
20260507135826 69 237 7.8 11.3 0.00 0.00 0.00 45 1010.8
20260507135326 69 233 10.4 10.4 0.00 0.00 0.00 46 1010.7
20260507134825 69 237 2.6 8.7 0.00 0.00 0.00 45 1010.7
20260507134325 69 225 4.3 8.7 0.00 0.00 0.00 45 1010.6
20260507133825 69 143 1.7 9.6 0.00 0.00 0.00 45 1010.6
20260507133324 69 295 6.1 9.6 0.00 0.00 0.00 45 1010.5
20260507132824 70 213 2.6 7.8 0.00 0.00 0.00 45 1010.5
20260507132324 70 232 3.5 7.8 0.00 0.00 0.00 45 1010.4
20260507131824 69 212 6.1 8.7 0.00 0.00 0.00 44 1010.4
20260507131323 70 220 4.3 12.2 0.00 0.00 0.00 43 1010.5
20260507130823 70 233 2.6 10.4 0.00 0.00 0.00 43 1010.5
20260507130323 70 227 2.6 12.2 0.00 0.00 0.00 43 1010.5
20260507125822 71 213 3.5 13.0 0.00 0.00 0.00 43 1010.5
20260507125322 71 239 2.6 7.8 0.00 0.00 0.00 42 1010.5
20260507124822 71 233 4.3 12.2 0.00 0.00 0.00 41 1010.5
20260507124322 71 222 4.3 9.6 0.00 0.00 0.00 43 1010.6
20260507123821 70 175 5.2 12.2 0.00 0.00 0.00 42 1010.5
20260507123321 70 219 12.2 12.2 0.00 0.00 0.00 43 1010.6
20260507122821 70 261 6.1 8.7 0.00 0.00 0.00 43 1010.6
20260507122320 70 246 4.3 7.8 0.00 0.00 0.00 44 1010.6
20260507121820 70 233 4.3 8.7 0.00 0.00 0.00 45 1010.6
20260507121320 69 250 2.6 9.6 0.00 0.00 0.00 44 1010.8
20260507120820 70 251 3.5 14.8 0.00 0.00 0.00 44 1010.8
20260507120319 70 192 13.0 13.0 0.00 0.00 0.00 43 1010.8
20260507115819 70 111 3.5 11.3 0.00 0.00 0.00 44 1010.8
20260507115319 70 203 7.8 10.4 0.00 0.00 0.00 44 1010.9
20260507114818 70 216 9.6 13.0 0.00 0.00 0.00 44 1010.9
20260507114318 70 156 8.7 10.4 0.00 0.00 0.00 45 1011.0
20260507113818 71 213 2.6 14.8 0.00 0.00 0.00 43 1011.1
20260507113318 70 229 6.1 13.9 0.00 0.00 0.00 42 1011.1
20260507112817 70 262 1.7 13.0 0.00 0.00 0.00 43 1011.0
20260507112317 70 171 3.5 10.4 0.00 0.00 0.00 43 1011.0
20260507111817 71 172 3.5 13.0 0.00 0.00 0.00 42 1011.1
20260507111317 71 199 7.8 12.2 0.00 0.00 0.00 42 1011.0
20260507110816 71 223 5.2 9.6 0.00 0.00 0.00 43 1011.0
20260507110316 71 225 2.6 12.2 0.00 0.00 0.00 42 1011.0
20260507105816 71 272 4.3 12.2 0.00 0.00 0.00 42 1011.0
20260507105315 71 239 5.2 11.3 0.00 0.00 0.00 41 1011.0
20260507104815 70 178 2.6 8.7 0.00 0.00 0.00 44 1011.0
20260507104315 70 202 1.7 13.0 0.00 0.00 0.00 44 1011.0
20260507103815 70 253 5.2 13.9 0.00 0.00 0.00 42 1011.0
20260507103314 70 196 4.3 11.3 0.00 0.00 0.00 42 1011.0
20260507102814 70 209 4.3 8.7 0.00 0.00 0.00 44 1011.1
20260507102314 70 237 7.0 7.8 0.00 0.00 0.00 43 1011.1
20260507101813 70 232 5.2 13.0 0.00 0.00 0.00 43 1011.0
20260507101313 70 226 7.8 11.3 0.00 0.00 0.00 42 1011.1
20260507100813 70 201 1.7 11.3 0.00 0.00 0.00 43 1011.0
20260507100313 70 206 2.6 10.4 0.00 0.00 0.00 43 1010.9
20260507095812 70 209 4.3 10.4 0.00 0.00 0.00 42 1011.0
20260507095312 70 241 7.0 11.3 0.00 0.00 0.00 44 1010.9
20260507094812 70 203 6.1 13.9 0.00 0.00 0.00 42 1010.9
20260507094311 70 230 3.5 11.3 0.00 0.00 0.00 43 1011.0
20260507093811 70 241 7.0 13.9 0.00 0.00 0.00 43 1011.0
20260507093311 70 232 1.7 13.9 0.00 0.00 0.00 44 1010.9
20260507092811 69 175 5.2 11.3 0.00 0.00 0.00 43 1011.0
20260507092310 69 240 7.8 12.2 0.00 0.00 0.00 45 1011.0
20260507091810 69 210 7.0 13.0 0.00 0.00 0.00 46 1011.0
20260507091310 68 232 6.1 9.6 0.00 0.00 0.00 49 1011.0
20260507090809 68 246 4.3 9.6 0.00 0.00 0.00 49 1011.0
20260507090309 68 254 1.7 11.3 0.00 0.00 0.00 49 1010.9
20260507085809 67 196 1.7 8.7 0.00 0.00 0.00 51 1010.9
20260507085309 67 236 1.7 7.8 0.00 0.00 0.00 50 1010.9
20260507084808 67 158 1.7 7.8 0.00 0.00 0.00 51 1011.0
20260507084308 67 264 4.3 7.8 0.00 0.00 0.00 50 1010.9
20260507083808 67 175 3.5 9.6 0.00 0.00 0.00 51 1010.9
20260507083307 67 122 0.0 9.6 0.00 0.00 0.00 52 1010.8
20260507082807 66 209 7.0 10.4 0.00 0.00 0.00 53 1010.8
20260507082307 66 130 2.6 10.4 0.00 0.00 0.00 54 1010.7
20260507081807 66 201 0.0 9.6 0.00 0.00 0.00 54 1010.8
20260507081306 66 199 7.8 11.3 0.00 0.00 0.00 55 1010.7
20260507080806 66 205 7.0 10.4 0.00 0.00 0.00 54 1010.7
20260507080306 65 203 6.1 11.3 0.00 0.00 0.00 54 1010.8
20260507075806 65 196 0.9 7.8 0.00 0.00 0.00 56 1010.8
20260507075307 65 233 1.7 8.7 0.00 0.00 0.00 56 1010.8
20260507074805 65 260 3.5 7.8 0.00 0.00 0.00 56 1010.8
20260507074305 65 234 3.5 7.8 0.00 0.00 0.00 57 1010.8
20260507073804 65 199 2.6 7.8 0.00 0.00 0.00 56 1010.7
20260507073304 64 209 5.2 8.7 0.00 0.00 0.00 57 1010.7
20260507072804 64 213 2.6 12.2 0.00 0.00 0.00 56 1010.6
20260507072306 64 164 2.6 8.7 0.00 0.00 0.00 57 1010.6
20260507071803 64 209 0.9 11.3 0.00 0.00 0.00 58 1010.6
20260507071303 64 171 1.7 9.6 0.00 0.00 0.00 57 1010.6
20260507070803 64 241 4.3 10.4 0.00 0.00 0.00 57 1010.6
20260507070302 64 230 7.8 9.6 0.00 0.00 0.00 57 1010.6
20260507065802 64 210 4.3 9.6 0.00 0.00 0.00 57 1010.5
20260507065305 64 178 0.0 3.5 0.00 0.00 0.00 58 1010.3
20260507064802 64 217 1.7 6.1 0.00 0.00 0.00 58 1010.3
20260507064301 64 172 2.6 7.0 0.00 0.00 0.00 58 1010.3
20260507063801 64 147 3.5 7.0 0.00 0.00 0.00 58 1010.3
20260507063301 64 233 2.6 5.2 0.00 0.00 0.00 59 1010.3
20260507062800 64 243 3.5 6.1 0.00 0.00 0.00 59 1010.3
20260507062300 63 160 2.6 9.6 0.00 0.00 0.00 59 1010.1
20260507061800 63 196 1.7 7.0 0.00 0.00 0.00 60 1010.1
20260507061300 63 243 0.9 5.2 0.00 0.00 0.00 60 1010.2
20260507060759 63 182 1.7 5.2 0.00 0.00 0.00 60 1010.2
20260507060259 63 223 1.7 7.0 0.00 0.00 0.00 61 1010.2
20260507055759 63 240 3.5 7.0 0.00 0.00 0.00 60 1010.1
20260507055258 62 182 2.6 7.8 0.00 0.00 0.00 61 1010.1
20260507054758 62 230 6.1 7.8 0.00 0.00 0.00 59 1010.1
20260507054258 62 104 1.7 5.2 0.00 0.00 0.00 61 1010.0
20260507053758 62 205 1.7 7.8 0.00 0.00 0.00 60 1010.0
20260507053257 62 222 0.9 6.1 0.00 0.00 0.00 61 1010.1
20260507052757 62 232 3.5 7.0 0.00 0.00 0.00 60 1010.1
20260507052257 62 188 1.7 9.6 0.00 0.00 0.00 61 1010.1
20260507051756 62 213 1.7 6.1 0.00 0.00 0.00 62 1010.1
20260507051256 62 199 0.0 7.8 0.00 0.00 0.00 62 1010.1
20260507050756 62 217 2.6 7.0 0.00 0.00 0.00 62 1010.1
20260507050256 62 213 1.7 7.8 0.00 0.00 0.00 62 1010.2
20260507045755 62 239 1.7 7.0 0.00 0.00 0.00 62 1010.2
20260507045255 62 253 2.6 8.7 0.00 0.00 0.00 61 1010.1
20260507044755 62 164 1.7 7.8 0.00 0.00 0.00 61 1010.1
20260507044254 62 229 6.1 7.0 0.00 0.00 0.00 60 1010.1
20260507043754 62 192 4.3 8.7 0.00 0.00 0.00 60 1010.0
20260507043254 62 248 0.9 7.8 0.00 0.00 0.00 60 1010.0
20260507042754 62 209 2.6 7.8 0.00 0.00 0.00 60 1010.0
20260507042253 62 208 1.7 7.0 0.00 0.00 0.00 60 1009.9
20260507041753 62 188 2.6 4.3 0.00 0.00 0.00 60 1009.8
20260507041253 62 209 1.7 5.2 0.00 0.00 0.00 61 1009.7
20260507040753 62 225 4.3 5.2 0.00 0.00 0.00 61 1009.6
20260507040252 62 244 1.7 4.3 0.00 0.00 0.00 60 1009.6
20260507035752 62 199 2.6 7.8 0.00 0.00 0.00 60 1009.6
20260507035252 62 142 1.7 7.8 0.00 0.00 0.00 59 1009.5
20260507034751 62 153 0.9 7.0 0.00 0.00 0.00 59 1009.5
20260507034251 63 237 1.7 8.7 0.00 0.00 0.00 57 1009.4